Content
SEND FEEDBACK

Daily
Averages
Monthly
Summary
United States of America

SPEARFISH, SOUTH DAKOTA


Home > North America > United States > South Dakota
Elevation: 1138 meters     Latitude: 44 30N     Longitude: 103 52W

WEATHER
 
SELECT A DAY
Number of Records: 227,470;   Date Range: 1/2/95 - 8/12/14
 
SHARE

PRINT THIS DATA

[ ← Previous Day ]
WEATHER ALMANAC - 31 JANUARY, 2013
[ Next Day → ]
[ °F ]   °C
Weather ElementAverageHighLow
Temperature-12.5 °C-3 °C (10:35 pm)-18 °C (8:35 am)
Dewpoint-16.2 °C-7 °C (10:55 pm)-21 °C (10:55 am)
Humidity75 %85 % (12:35 am)62 % (3:35 pm)
Barometer1017.3 hPa1020.7 hPa (10:55 am)1012.5 hPa (12:35 am)
Wind Speed18.7 km/h37 km/h (2:55 am)
Wind Gust50.1 km/h (1:35 am)
Weather ElementAverage
Visibility12.2 km
Wind DirectionWNW (299.9 °)

Weather ElementTotal
Precipitation73.15 mm
Heating Degree Days28.8 (Base 18.3)
Averaged from 68 records on 31 January, 2013
WEATHER CONDITIONS BREAKOUT
WIND DIRECTION BREAKOUT
WEATHER BY HOUR - 31 JANUARY, 2013
[ °F ]   °C
Local TimeTemperatureDewpointHumidityBarometerVisibilityWind DirectionWind SpeedGust SpeedPrecipitationEventsConditions
12:35 AM-12 °C-14 °C85 %1012.5 hPa2.9 kmWNW (300°)25.9 km/h38.9 km/h7.62 mmSnowLight Snow
1:15 AM-13 °C-15 °C85 %1013.2 hPa3.2 kmWNW (300°)25.9 km/h46.3 km/h1.27 mmSnowLight Snow
1:35 AM-13 °C-15 °C85 %1013.2 hPa2.4 kmWNW (290°)33.3 km/h50.1 km/h4.32 mmSnowLight Snow
1:55 AM-13 °C-16 °C79 %1013.5 hPa2.9 kmNW (310°)27.8 km/h50.1 km/h5.84 mmSnowLight Snow
2:15 AM-13 °C-16 °C79 %1013.5 hPa4 kmWNW (300°)31.5 km/h46.3 km/h0.76 mmSnowLight Snow
2:35 AM-13 °C-16 °C79 %1013.9 hPa8 kmWNW (290°)31.5 km/h50.1 km/h1.02 mmSnowLight Snow
2:55 AM-13 °C-17 °C73 %1014.6 hPa6.4 kmNW (310°)37 km/h48.1 km/h1.52 mmSnowLight Snow
3:15 AM-14 °C-18 °C72 %1014.6 hPa4 kmNW (310°)31.5 km/h42.6 km/h1.02 mmSnowLight Snow
3:35 AM-15 °C-18 °C78 %1014.6 hPa4 kmNW (310°)29.6 km/h38.9 km/h3.05 mmSnowLight Snow
3:55 AM-15 °C-18 °C78 %1014.9 hPa2.9 kmNW (310°)25.9 km/h6.6 mmSnowLight Snow
4:15 AM-15 °C-18 °C78 %1015.2 hPa2.4 kmNW (310°)22.2 km/h2.29 mmSnowLight Snow
4:35 AM-15 °C-18 °C78 %1015.9 hPa1.9 kmNW (310°)24.1 km/h7.11 mmSnowLight Snow
4:55 AM-15 °C-18 °C78 %1015.9 hPa3.2 kmNW (310°)27.8 km/h38.9 km/h9.91 mmSnowLight Snow
5:15 AM-16 °C-18 °C85 %1016.3 hPa2.4 kmWNW (300°)33.3 km/h50.1 km/h2.03 mmSnowLight Snow
5:35 AM-16 °C-19 °C78 %1016.9 hPa3.2 kmWNW (300°)29.6 km/h42.6 km/h3.81 mmSnowLight Snow
5:55 AM-17 °C-19 °C85 %1017.3 hPa2.9 kmNW (310°)24.1 km/h35.2 km/h6.86 mmSnowLight Snow
6:15 AM-17 °C-19 °C85 %1017.6 hPa4.8 kmWNW (290°)20.4 km/h0.51 mmSnowLight Snow
6:35 AM-17 °C-19 °C85 %1017.6 hPa4.8 kmWest (280°)20.4 km/h29.6 km/h1.02 mmSnowLight Snow
6:55 AM-17 °C-19 °C85 %1018.3 hPa3.2 kmWest (280°)25.9 km/h35.2 km/h2.29 mmSnowLight Snow
7:15 AM-17 °C-19 °C85 %1017.9 hPa4 kmWNW (290°)22.2 km/h29.6 km/h0.76 mmSnowLight Snow
7:35 AM-17 °C-19 °C85 %1018.3 hPa6.4 kmWNW (290°)29.6 km/h38.9 km/h1.78 mmSnowLight Snow
7:55 AM-17 °C-20 °C78 %1019 hPa16.1 kmWNW (300°)24.1 km/h1.78 mmOvercast
8:15 AM-17 °C-19 °C85 %1019 hPa16.1 kmNW (320°)25.9 km/hScattered Clouds
8:35 AM-18 °C-20 °C85 %1019 hPa16.1 kmNW (320°)24.1 km/hPartly Cloudy
8:55 AM-18 °C-20 °C85 %1019.6 hPa16.1 kmNW (310°)22.2 km/hPartly Cloudy
9:15 AM-18 °C-20 °C85 %1019.6 hPa16.1 kmNW (310°)22.2 km/hClear
9:55 AM-17 °C-20 °C78 %1020.3 hPa14.5 kmNW (310°)24.1 km/h31.5 km/hSnowLight Snow
10:15 AM-17 °C-20 °C78 %1020.3 hPa16.1 kmNW (320°)22.2 km/hPartly Cloudy
10:35 AM-17 °C-20 °C78 %1020.3 hPa16.1 kmNW (320°)25.9 km/hPartly Cloudy
10:55 AM-17 °C-21 °C72 %1020.7 hPa16.1 kmNW (310°)20.4 km/hClear
11:15 AM-17 °C-20 °C78 %1020.3 hPa16.1 kmWNW (300°)16.7 km/hClear
11:35 AM-17 °C-20 °C78 %1020.3 hPa16.1 kmNW (310°)18.5 km/hClear
11:55 AM-16 °C-20 °C72 %1020 hPa16.1 kmWNW (290°)14.8 km/hClear
12:15 PM-16 °C-20 °C72 %1020 hPa16.1 kmNW (310°)13 km/hClear
12:35 PM-15 °C-19 °C72 %1019.6 hPa16.1 kmWNW (290°)14.8 km/hClear
12:55 PM-15 °C-19 °C72 %1019.6 hPa16.1 kmNW (310°)11.1 km/hClear
1:15 PM-14 °C-19 °C67 %1019.3 hPa16.1 kmWNW (300°)13 km/hClear
1:35 PM-14 °C-18 °C72 %1019 hPa16.1 kmNW (320°)14.8 km/hScattered Clouds
1:55 PM-13 °C-18 °C67 %1018.6 hPa16.1 kmNW (310°)9.3 km/hScattered Clouds
2:15 PM-13 °C-18 °C67 %1018.6 hPa16.1 kmNW (310°)7.4 km/hMostly Cloudy
2:35 PM-13 °C-17 °C73 %1018.3 hPa16.1 kmWNW (290°)9.3 km/hOvercast
2:55 PM-12 °C-17 °C67 %1018.3 hPa16.1 kmWest (260°)7.4 km/hOvercast
3:15 PM-12 °C-17 °C67 %1018.3 hPa16.1 kmNW (320°)9.3 km/hOvercast
3:35 PM-10 °C-16 °C62 %1018.3 hPa16.1 kmNW (320°)13 km/hOvercast
3:55 PM-10 °C-15 °C67 %1018.3 hPa16.1 kmNW (310°)14.8 km/hOvercast
4:15 PM-9 °C-15 °C62 %1018.3 hPa16.1 kmWNW (300°)13 km/h25.9 km/hOvercast
4:35 PM-8 °C-14 °C63 %1018.3 hPa16.1 kmWNW (300°)22.2 km/h27.8 km/hOvercast
4:55 PM-9 °C-15 °C62 %1017.9 hPa16.1 kmNW (310°)22.2 km/hOvercast
5:15 PM-9 °C-14 °C68 %1017.6 hPa16.1 kmNW (310°)16.7 km/hOvercast
5:35 PM-9 °C-14 °C68 %1017.6 hPa16.1 kmNW (310°)14.8 km/hOvercast
5:55 PM-9 °C-14 °C68 %1017.6 hPa16.1 kmNW (310°)14.8 km/hOvercast
6:15 PM-9 °C-14 °C68 %1017.6 hPa16.1 kmWNW (300°)13 km/hOvercast
6:35 PM-9 °C-14 °C68 %1017.6 hPa16.1 kmWest (280°)11.1 km/hOvercast
6:55 PM-9 °C-14 °C68 %1017.6 hPa16.1 kmWNW (290°)9.3 km/hOvercast
7:15 PM-9 °C-14 °C68 %1017.6 hPa16.1 kmWest (280°)11.1 km/hOvercast
7:35 PM-9 °C-13 °C73 %1017.3 hPa16.1 kmWest (270°)11.1 km/hOvercast
7:55 PM-9 °C-13 °C73 %1017.3 hPa16.1 kmWNW (290°)9.3 km/hOvercast
8:15 PM-9 °C-13 °C73 %1016.9 hPa16.1 kmWest (280°)11.1 km/hOvercast
8:35 PM-9 °C-13 °C73 %1016.9 hPa16.1 kmWNW (290°)9.3 km/hOvercast
8:55 PM-9 °C-13 °C73 %1016.6 hPa16.1 kmWest (280°)7.4 km/hOvercast
9:15 PM-9 °C-12 °C79 %1016.6 hPa16.1 kmWNW (300°)9.3 km/hOvercast
9:35 PM-8 °C-12 °C73 %1016.3 hPa16.1 kmWest (280°)9.3 km/hOvercast
9:55 PM-7 °C-10 °C80 %1016.3 hPa16.1 kmWest (270°)11.1 km/hOvercast
10:15 PM-4 °C-8 °C74 %1015.9 hPa16.1 kmWest (270°)14.8 km/hOvercast
10:35 PM-3 °C-8 °C69 %1015.6 hPa16.1 kmWest (270°)14.8 km/hOvercast
10:55 PM-3 °C-7 °C74 %1015.6 hPa16.1 kmWNW (300°)11.1 km/hOvercast
11:15 PM-3 °C-7 °C74 %1015.2 hPa16.1 kmWNW (300°)11.1 km/hOvercast
11:35 PM-4 °C-8 °C74 %1015.2 hPa16.1 kmNNW (330°)7.4 km/hOvercast
Hourly data recorded from KSPF, located 0 kilometers away from Spearfish, South Dakota







STORIES FROM OUR PARTNERS